Powrót do katalogu

USA 401

AktywnyMilitariaVLEO
NORAD 61022·PAYLOAD·🇺🇸 United States

Wystrzelony Sep 6, 2024 z Vandenberg Space Force Base

Loading…

Następne Przeloty (najbliższe 24 godziny)

TLE

NieaktualneSource: Mike McCants

Epoka: Aug 24, 2026, 23:43 UTC

1 61022U 24160B   26236.98863858 0.00000000  00000-0  00000-0 0    01
2 61022  70.0193 199.2675 0003000 219.4926 140.5073 14.96713201    02

Śledź USA 401 w czasie rzeczywistym z AllMySat

Download on the App Store